Tracking 25710 objects as of 6-Jul-2022
HD Live streaming from Space Station
objects crossing your sky now

STARLINK-2187

Track STARLINK-2187 now!
10-day predictions
STARLINK-2187 is classified as:


NORAD ID: 48562
Int'l Code: 2021-041K
Perigee: 553.4 km
Apogee: 555.3 km
Inclination: 53.1 °
Period: 95.6 minutes
Semi major axis: 6925 km
RCS: Unknown
Launch date: May 15, 2021
Source: United States (US)
Launch site: AIR FORCE EASTERN TEST RANGE (AFETR)
aabbcc
Your satellite tracking list
Your tracking list is empty




NASA's NSSDC Master Catalog

Two Line Element Set (TLE):
1 48562U 21041K   22186.82096362 -.00000582  00000-0 -20162-4 0  9990
2 48562  53.0552  39.9895 0001311  94.3608 265.7531 15.06401165 62800
Source of the keplerian elements: AFSPC